Big Bear City, CA

12:19 AM PDT on September 18, 2019 (GMT -0700)
Big Bear City

Weather History for KL35 - May, 2019

Change the Weather History Date:

Friday, May 17, 2019

  Actual Average (WUND) Record (WUND)
Temperature  
Mean Temperature 40 °F -  
Max Temperature 51 °F - - (-1)
Min Temperature 30 °F - - (-1)
Degree Days  
Heating Degree Days 24    
Moisture  
Dew Point 27 °F    
Average Humidity 62    
Maximum Humidity 93    
Minimum Humidity 27    
Precipitation  
Precipitation 0.00 in - - ()
Sea Level Pressure  
Sea Level Pressure 29.99 in    
Wind  
Wind Speed 10 mph (WSW)    
Max Wind Speed 21 mph    
Max Gust Speed 30 mph    
Visibility 10 miles    
Events      
Averages and records for this station are not official NWS values.
T = Trace of Precipitation, MM = Missing Value Source: NWS Daily Summary

Daily Weather History Graph

Daily Weather History Graph

Search for Another Location

Airport or City:

Astronomy

May. 17, 2019 Rise Set
Actual Time 5:44 AM PDT 7:43 PM PDT
Civil Twilight 5:16 AM PDT 8:11 PM PDT
Nautical Twilight 4:42 AM PDT 8:45 PM PDT
Astronomical Twilight 4:06 AM PDT 9:22 PM PDT
Moon 6:42 PM PDT (5/17) 5:10 AM PDT (5/17)
Length of Visible Light 14h 55m
Length of Day
13h 59m
Waxing Gibbous, 99% of the Moon is Illuminated
May 17
Waxing Gibbous
May 18
Full
May 26
Last Quarter
Jun 3
New
Jun 9
First Quarter

Hourly Weather History & Observations

Time (PDT) Temp. Windchill Dew Point Humidity Pressure Visibility Wind Dir Wind Speed Gust Speed Precip Events Conditions
12:15 AM 33.8 °F 24.8 °F 30.2 °F 87% 29.95 in 10.0 mi WSW 12.7 mph 20.7 mph N/A   Overcast
12:35 AM 33.8 °F 24.8 °F 30.2 °F 87% 29.95 in 10.0 mi West 12.7 mph 20.7 mph N/A   Overcast
12:55 AM 33.8 °F 25.3 °F 30.2 °F 87% 29.94 in 10.0 mi WSW 11.5 mph 25.3 mph N/A   Overcast
1:15 AM 33.8 °F 22.2 °F 30.2 °F 87% 29.94 in 10.0 mi West 20.7 mph 29.9 mph N/A   Mostly Cloudy
1:35 AM 32.0 °F 21.6 °F 30.2 °F 93% 29.94 in 10.0 mi West 15.0 mph 21.9 mph N/A   Mostly Cloudy
1:55 AM 32.0 °F 21.6 °F 30.2 °F 93% 29.94 in 10.0 mi West 15.0 mph - N/A   Scattered Clouds
2:15 AM 32.0 °F 20.5 °F 30.2 °F 93% 29.94 in 10.0 mi West 18.4 mph 24.2 mph N/A   Mostly Cloudy
2:35 AM 32.0 °F 20.5 °F 30.2 °F 93% 29.94 in 10.0 mi West 18.4 mph 24.2 mph N/A   Mostly Cloudy
2:55 AM 33.8 °F 23.9 °F 30.2 °F 87% 29.94 in 10.0 mi West 15.0 mph 19.6 mph N/A   Overcast
3:15 AM 32.0 °F 21.6 °F 30.2 °F 93% 29.94 in 10.0 mi West 15.0 mph 20.7 mph N/A   Mostly Cloudy
3:35 AM 32.0 °F 20.8 °F 30.2 °F 93% 29.94 in 10.0 mi West 17.3 mph 23.0 mph N/A   Scattered Clouds
3:55 AM 32.0 °F 25.6 °F 28.4 °F 87% 29.95 in 10.0 mi West 6.9 mph 19.6 mph N/A   Scattered Clouds
4:15 AM 32.0 °F 23.6 °F 28.4 °F 87% 29.95 in 10.0 mi West 10.4 mph 17.3 mph N/A   Clear
4:35 AM 32.0 °F 24.8 °F 28.4 °F 87% 29.95 in 10.0 mi West 8.1 mph - N/A   Clear
4:55 AM 32.0 °F 23.6 °F 28.4 °F 87% 29.94 in 10.0 mi WSW 10.4 mph 18.4 mph N/A   Clear
5:15 AM 32.0 °F 24.2 °F 28.4 °F 87% 29.95 in 10.0 mi West 9.2 mph - N/A   Clear
5:35 AM 32.0 °F 27.5 °F 28.4 °F 87% 29.94 in 10.0 mi WNW 4.6 mph - N/A   Clear
5:55 AM 30.2 °F 24.3 °F 28.4 °F 93% 29.94 in 10.0 mi WNW 5.8 mph - N/A   Clear
6:15 AM 32.0 °F - 28.4 °F 87% 29.94 in 10.0 mi Calm Calm - N/A   Clear
6:35 AM 32.0 °F - 26.6 °F 80% 29.94 in 10.0 mi Calm Calm - N/A   Clear
6:55 AM 35.6 °F 28.6 °F 23.0 °F 60% 29.95 in 10.0 mi West 9.2 mph - N/A   Clear
7:15 AM 35.6 °F 28.0 °F 23.0 °F 60% 29.96 in 10.0 mi West 10.4 mph - N/A   Clear
7:35 AM 39.2 °F 32.5 °F 19.4 °F 45% 29.96 in 10.0 mi West 10.4 mph - N/A   Clear
7:55 AM 39.2 °F 32.0 °F 19.4 °F 45% 29.97 in 10.0 mi West 11.5 mph 17.3 mph N/A   Clear
8:15 AM 41.0 °F 34.7 °F 19.4 °F 42% 29.96 in 10.0 mi WSW 10.4 mph - N/A   Clear
8:35 AM 41.0 °F 34.3 °F 19.4 °F 42% 29.97 in 10.0 mi WSW 11.5 mph 17.3 mph N/A   Clear
8:55 AM 42.8 °F 37.0 °F 17.6 °F 36% 29.98 in 10.0 mi SW 10.4 mph 18.4 mph N/A   Clear
9:15 AM 42.8 °F 37.5 °F 17.6 °F 36% 29.98 in 10.0 mi SW 9.2 mph 18.4 mph N/A   Clear
9:35 AM 42.8 °F 35.8 °F 15.8 °F 34% 29.98 in 10.0 mi SW 13.8 mph 19.6 mph N/A   Clear
9:55 AM 44.6 °F 38.4 °F 17.6 °F 34% 29.99 in 10.0 mi WSW 12.7 mph 21.9 mph N/A   Clear
10:15 AM 46.4 °F 40.4 °F 15.8 °F 29% 29.99 in 10.0 mi SW 13.8 mph 19.6 mph N/A   Clear
10:35 AM 46.4 °F 41.9 °F 14.0 °F 27% 29.99 in 10.0 mi SW 9.2 mph 17.3 mph N/A   Clear
10:55 AM 48.2 °F - 17.6 °F 30% 29.99 in 10.0 mi WSW 10.4 mph 20.7 mph N/A   Clear
11:15 AM 50.0 °F - 17.6 °F 28% 30.00 in 10.0 mi WSW 12.7 mph 18.4 mph N/A   Clear
11:35 AM 48.2 °F - 21.2 °F 34% 30.00 in 10.0 mi WSW 10.4 mph 19.6 mph N/A   Clear
11:55 AM 48.2 °F - 23.0 °F 37% 30.01 in 10.0 mi WSW 12.7 mph 18.4 mph N/A   Clear
12:15 PM 50.0 °F - 24.8 °F 37% 30.01 in 10.0 mi WSW 8.1 mph - N/A   Clear
12:35 PM 48.2 °F - 23.0 °F 37% 30.01 in 10.0 mi SW 10.4 mph 17.3 mph N/A   Clear
12:55 PM 50.0 °F - 23.0 °F 35% 30.01 in 10.0 mi SW 11.5 mph 17.3 mph N/A   Clear
1:15 PM 50.0 °F - 23.0 °F 35% 30.01 in 10.0 mi WSW 11.5 mph 19.6 mph N/A   Clear
1:35 PM 50.0 °F - 24.8 °F 37% 30.01 in 10.0 mi West 11.5 mph 20.7 mph N/A   Clear
1:55 PM 51.8 °F - 26.6 °F 38% 30.01 in 10.0 mi WSW 9.2 mph 17.3 mph N/A   Clear
2:15 PM 50.0 °F - 23.0 °F 35% 30.01 in 10.0 mi WSW 11.5 mph 20.7 mph N/A   Clear
2:35 PM 50.0 °F - 26.6 °F 40% 30.01 in 10.0 mi WSW 10.4 mph 18.4 mph N/A   Clear
2:55 PM 50.0 °F - 30.2 °F 47% 30.01 in 10.0 mi West 10.4 mph 17.3 mph N/A   Clear
3:15 PM 50.0 °F - 30.2 °F 47% 30.01 in 10.0 mi WSW 10.4 mph - N/A   Scattered Clouds
3:35 PM 50.0 °F - 30.2 °F 47% 30.00 in 10.0 mi West 10.4 mph - N/A   Clear
3:55 PM 50.0 °F - 32.0 °F 50% 30.00 in 10.0 mi WSW 8.1 mph - N/A   Clear
4:15 PM 50.0 °F - 32.0 °F 50% 30.00 in 10.0 mi West 8.1 mph - N/A   Clear
4:35 PM 50.0 °F - 32.0 °F 50% 30.00 in 10.0 mi West 12.7 mph - N/A   Clear
4:55 PM 50.0 °F - 30.2 °F 47% 30.01 in 10.0 mi West 10.4 mph 16.1 mph N/A   Clear
5:15 PM 48.2 °F - 32.0 °F 54% 30.01 in 10.0 mi WSW 6.9 mph 17.3 mph N/A   Clear
5:35 PM 46.4 °F - 32.0 °F 57% 30.01 in 10.0 mi Calm Calm - N/A   Clear
5:55 PM 44.6 °F 41.4 °F 32.0 °F 61% 30.00 in 10.0 mi South 5.8 mph - N/A   Scattered Clouds
6:15 PM 46.4 °F 42.9 °F 32.0 °F 57% 30.01 in 10.0 mi SW 6.9 mph - N/A   Clear
6:35 PM 44.6 °F - 30.2 °F 57% 30.01 in 10.0 mi Calm Calm - N/A   Clear
6:55 PM 44.6 °F 42.2 °F 30.2 °F 57% 30.01 in 10.0 mi SW 4.6 mph - N/A   Clear
7:15 PM 44.6 °F 42.2 °F 26.6 °F 49% 30.01 in 10.0 mi West 4.6 mph - N/A   Clear
7:35 PM 42.8 °F 40.1 °F 32.0 °F 66% 30.01 in 10.0 mi West 4.6 mph - N/A   Clear
7:55 PM 41.0 °F 37.1 °F 32.0 °F 70% 30.01 in 10.0 mi West 5.8 mph - N/A   Clear
8:15 PM 41.0 °F 37.1 °F 32.0 °F 70% 30.01 in 10.0 mi West 5.8 mph - N/A   Clear
8:35 PM 41.0 °F 39.0 °F 30.2 °F 65% 30.01 in 10.0 mi WSW 3.5 mph - N/A   Clear
8:55 PM 39.2 °F - 32.0 °F 75% 30.01 in 10.0 mi Calm Calm - N/A   Clear
9:15 PM 37.4 °F - 30.2 °F 75% 30.02 in 10.0 mi Calm Calm - N/A   Clear
9:35 PM 35.6 °F - 28.4 °F 75% 30.03 in 10.0 mi Calm Calm - N/A   Clear
9:55 PM 33.8 °F - 28.4 °F 81% 30.03 in 10.0 mi Calm Calm - N/A   Clear
10:15 PM 32.0 °F - 26.6 °F 80% 30.03 in 10.0 mi Calm Calm - N/A   Clear
10:35 PM 32.0 °F - 26.6 °F 80% 30.04 in 10.0 mi Calm Calm - N/A   Clear
10:55 PM 32.0 °F - 24.8 °F 75% 30.04 in 10.0 mi Calm Calm - N/A   Clear
11:15 PM 32.0 °F 26.4 °F 26.6 °F 80% 30.04 in 10.0 mi ENE 5.8 mph - N/A   Clear
11:35 PM 32.0 °F - 24.8 °F 75% 30.04 in 10.0 mi Calm Calm - N/A   Clear
11:55 PM 30.2 °F - 23.0 °F 75% 30.04 in 10.0 mi Calm Calm - N/A   Clear